Date String (YYYY-MM-DD hh:mm:ss) UTC,Instrument flags,absolute air pressure of the measurement (hPa),sample flow rate (lpm),inlet stack bypass flow (lpm),air temperature of the measurement (°C),ambient temperature measured by the external sensor (°C),aerosol sample conditioner tube jacket temperature (°C),OPC LED temperature (°C),internal box temperature (°C),relative humidity of the measurement (%),span deviation,mass concentration of particles derived from Lorenz-Mie calculation of OPC scattering (μg/m³),mass concentration of particles derived from Lorenz-Mie calculation of OPC scattering (μg/m³),mass concentration of particles derived from Lorenz-Mie calculation of OPC scattering (μg/m³)
DateTimeUTC,F1_M11,P_M11,Q1_M11,Q2_M11,T1_M11,T2_M11,T3_M11,T4_M11,T5_M11,U1_M11,ZSPAN_M11,X2_M11,X0_M11,X1_M11
2024-02-25 00:00:00,SystemResetWarning,0824.2,4.99,000.00,022.7,021.8,000.0,030.9,024.3,06.1,0000.0,0003.38,0017.75,0001.07
2024-02-25 00:01:00,SystemResetWarning,0824.1,4.99,000.00,022.6,021.8,000.0,030.9,024.3,06.1,0000.0,0003.42,0017.77,0001.06
2024-02-25 00:02:00,SystemResetWarning,0824.1,5.01,000.00,022.6,021.8,000.0,030.9,024.3,06.1,0000.0,0003.42,0017.11,0001.06
2024-02-25 00:03:00,SystemResetWarning,0824.1,5.01,000.00,022.6,021.8,000.0,030.9,024.3,06.1,0000.0,0003.41,0016.87,0001.05
2024-02-25 00:04:00,SystemResetWarning,0824.0,4.99,000.00,022.6,021.8,000.0,030.9,024.3,06.1,0000.0,0003.41,0017.29,0001.05
2024-02-25 00:05:00,SystemResetWarning,0824.0,4.99,000.00,022.6,021.8,000.0,030.9,024.3,06.2,0000.0,0003.40,0016.53,0001.04
2024-02-25 00:06:00,SystemResetWarning,0824.1,5.01,000.00,022.6,021.8,000.0,030.9,024.3,06.1,0000.0,0003.53,0016.76,0001.05
2024-02-25 00:07:00,SystemResetWarning,0824.2,5.01,000.00,022.6,021.8,000.0,030.9,024.2,06.2,0000.0,0003.55,0016.87,0001.06
2024-02-25 00:08:00,SystemResetWarning,0824.2,4.99,000.00,022.6,021.8,000.0,030.9,024.3,06.3,0000.0,0003.43,0014.44,0001.04
2024-02-25 00:09:00,SystemResetWarning,0824.0,5.00,000.00,022.6,021.8,000.0,030.9,024.2,06.2,0000.0,0003.30,0012.81,0001.04
2024-02-25 00:10:00,SystemResetWarning,0824.1,5.00,000.00,022.6,021.7,000.0,030.9,024.2,06.2,0000.0,0003.31,0013.08,0001.06
2024-02-25 00:11:00,SystemResetWarning,0824.1,5.01,000.00,022.6,021.7,000.0,030.9,024.2,06.2,0000.0,0003.31,0012.80,0001.05
2024-02-25 00:12:00,SystemResetWarning,0824.2,5.01,000.00,022.6,021.7,000.0,030.9,024.2,06.2,0000.0,0003.31,0012.40,0001.05
2024-02-25 00:13:00,SystemResetWarning,0824.2,5.00,000.00,022.6,021.7,000.0,030.9,024.2,06.4,0000.0,0003.35,0012.44,0001.06
2024-02-25 00:14:00,SystemResetWarning,0824.4,4.99,000.00,022.6,021.7,000.0,030.9,024.2,06.3,0000.0,0003.38,0012.33,0001.06
2024-02-25 00:15:00,SystemResetWarning,0824.3,5.00,000.00,022.6,021.7,000.0,030.8,024.2,06.4,0000.0,0003.43,0012.82,0001.07
2024-02-25 00:16:00,SystemResetWarning,0824.3,5.00,000.00,022.6,021.7,000.0,030.8,024.2,06.4,0000.0,0003.45,0012.64,0001.07
2024-02-25 00:17:00,SystemResetWarning,0824.3,5.00,000.00,022.6,021.7,000.0,030.8,024.2,06.3,0000.0,0003.34,0011.56,0001.07
2024-02-25 00:18:00,SystemResetWarning,0824.3,4.99,000.00,022.6,021.7,000.0,030.8,024.2,06.4,0000.0,0003.28,0010.45,0001.05
2024-02-25 00:19:00,SystemResetWarning,0824.2,5.00,000.00,022.5,021.7,000.0,030.8,024.2,06.3,0000.0,0003.26,0010.20,0001.05
2024-02-25 00:20:00,SystemResetWarning,0824.3,5.00,000.00,022.5,021.7,000.0,030.8,024.2,06.4,0000.0,0003.27,0010.83,0001.04
2024-02-25 00:21:00,SystemResetWarning,0824.2,5.00,000.00,022.5,021.7,000.0,030.8,024.2,06.4,0000.0,0003.26,0010.47,0001.02
2024-02-25 00:22:00,SystemResetWarning,0824.2,4.99,000.00,022.5,021.7,000.0,030.8,024.2,06.3,0000.0,0003.23,0010.04,0001.03
2024-02-25 00:23:00,SystemResetWarning,0824.3,5.01,000.00,022.5,021.7,000.0,030.8,024.2,06.2,0000.0,0003.20,0010.22,0001.02
2024-02-25 00:24:00,SystemResetWarning,0824.5,5.01,000.00,022.5,021.7,000.0,030.8,024.2,06.4,0000.0,0003.17,0010.50,0001.01
2024-02-25 00:25:00,SystemResetWarning,0824.3,5.00,000.00,022.5,021.7,000.0,030.8,024.2,06.4,0000.0,0003.11,0010.60,0001.00
2024-02-25 00:26:00,SystemResetWarning,0824.4,4.99,000.00,022.5,021.6,000.0,030.8,024.2,06.4,0000.0,0003.01,0010.14,0001.00
2024-02-25 00:27:00,SystemResetWarning,0824.4,4.99,000.00,022.5,021.6,000.0,030.8,024.1,06.4,0000.0,0002.98,0010.30,0001.00
2024-02-25 00:28:00,SystemResetWarning,0824.5,4.99,000.00,022.5,021.6,000.0,030.8,024.1,06.4,0000.0,0002.93,0009.98,0001.00
2024-02-25 00:29:00,SystemResetWarning,0824.5,5.00,000.00,022.5,021.6,000.0,030.8,024.1,06.4,0000.0,0002.91,0010.05,0001.01
2024-02-25 00:30:00,SystemResetWarning,0824.5,5.00,000.00,022.5,021.6,000.0,030.8,024.2,06.4,0000.0,0002.93,0010.74,0001.01
2024-02-25 00:31:00,SystemResetWarning,0824.5,5.00,000.00,022.4,021.6,000.0,030.7,024.1,06.4,0000.0,0002.97,0010.35,0001.00
2024-02-25 00:32:00,SystemResetWarning,0824.5,5.00,000.00,022.4,021.6,000.0,030.7,024.1,06.5,0000.0,0002.88,0009.87,0000.99
2024-02-25 00:33:00,SystemResetWarning,0824.5,5.00,000.00,022.4,021.6,000.0,030.7,024.1,06.4,0000.0,0002.87,0009.92,0000.97
2024-02-25 00:34:00,SystemResetWarning,0824.4,5.01,000.00,022.4,021.6,000.0,030.7,024.1,06.4,0000.0,0002.87,0009.82,0000.97
2024-02-25 00:35:00,SystemResetWarning,0824.5,5.00,000.00,022.4,021.6,000.0,030.7,024.1,06.3,0000.0,0002.88,0009.98,0000.97
2024-02-25 00:36:00,SystemResetWarning,0824.6,4.99,000.00,022.4,021.6,000.0,030.7,024.1,06.4,0000.0,0002.90,0010.24,0000.97
2024-02-25 00:37:00,SystemResetWarning,0824.5,5.00,000.00,022.4,021.6,000.0,030.7,024.1,06.5,0000.0,0002.87,0009.82,0000.96
2024-02-25 00:38:00,SystemResetWarning,0824.7,5.00,000.00,022.4,021.6,000.0,030.7,024.1,06.5,0000.0,0002.76,0009.41,0000.95
2024-02-25 00:39:00,SystemResetWarning,0824.6,5.00,000.00,022.4,021.6,000.0,030.7,024.1,06.4,0000.0,0002.74,0009.72,0000.94
2024-02-25 00:40:00,SystemResetWarning,0824.7,5.00,000.00,022.4,021.6,000.0,030.7,024.1,06.5,0000.0,0002.77,0009.71,0000.93
2024-02-25 00:41:00,SystemResetWarning,0824.7,5.00,000.00,022.4,021.6,000.0,030.7,024.1,06.4,0000.0,0002.79,0009.63,0000.92
2024-02-25 00:42:00,SystemResetWarning,0824.9,5.00,000.00,022.4,021.6,000.0,030.7,024.1,06.4,0000.0,0002.82,0009.45,0000.92
2024-02-25 00:43:00,SystemResetWarning,0824.9,5.00,000.00,022.4,021.5,000.0,030.7,024.1,06.5,0000.0,0002.89,0009.65,0000.93
2024-02-25 00:44:00,SystemResetWarning,0824.8,5.00,000.00,022.4,021.5,000.0,030.7,024.1,06.4,0000.0,0002.91,0009.75,0000.93
2024-02-25 00:45:00,SystemResetWarning,0824.9,5.00,000.00,022.4,021.5,000.0,030.7,024.0,06.4,0000.0,0002.85,0009.65,0000.93
2024-02-25 00:46:00,SystemResetWarning,0824.9,5.00,000.00,022.4,021.5,000.0,030.6,024.1,06.4,0000.0,0002.79,0009.00,0000.94
2024-02-25 00:47:00,SystemResetWarning,0824.9,5.00,000.00,022.4,021.5,000.0,030.7,024.1,06.4,0000.0,0002.79,0008.50,0000.94
2024-02-25 00:48:00,SystemResetWarning,0824.8,5.00,000.00,022.4,021.5,000.0,030.6,024.0,06.4,0000.0,0002.88,0008.79,0000.93
2024-02-25 00:49:00,SystemResetWarning,0824.8,5.00,000.00,022.4,021.5,000.0,030.6,024.0,06.4,0000.0,0002.95,0009.07,0000.92
2024-02-25 00:50:00,SystemResetWarning,0824.8,5.00,000.00,022.3,021.5,000.0,030.6,024.1,06.5,0000.0,0002.95,0008.80,0000.93
2024-02-25 00:51:00,SystemResetWarning,0824.9,5.00,000.00,022.3,021.5,000.0,030.6,024.0,06.4,0000.0,0002.86,0009.19,0000.93
2024-02-25 00:52:00,SystemResetWarning,0824.9,5.00,000.00,022.3,021.5,000.0,030.6,024.0,06.3,0000.0,0002.80,0008.58,0000.92
2024-02-25 00:53:00,SystemResetWarning,0824.9,5.01,000.00,022.3,021.5,000.0,030.6,024.0,06.2,0000.0,0002.74,0008.46,0000.92
2024-02-25 00:54:00,SystemResetWarning,0824.8,5.01,000.00,022.3,021.5,000.0,030.6,024.0,06.3,0000.0,0002.76,0008.62,0000.94
2024-02-25 00:55:00,SystemResetWarning,0824.9,4.99,000.00,022.3,021.5,000.0,030.6,024.0,06.4,0000.0,0002.86,0008.77,0000.95
2024-02-25 00:56:00,SystemResetWarning,0824.9,5.00,000.00,022.3,021.4,000.0,030.6,024.0,06.4,0000.0,0002.89,0008.90,0000.96
2024-02-25 00:57:00,SystemResetWarning,0824.9,5.00,000.00,022.3,021.4,000.0,030.6,024.0,06.2,0000.0,0002.89,0009.20,0000.95
2024-02-25 00:58:00,SystemResetWarning,0824.9,5.01,000.00,022.3,021.4,000.0,030.6,024.0,05.9,0000.0,0002.91,0009.57,0000.95
2024-02-25 00:59:00,SystemResetWarning,0824.9,5.01,000.00,022.3,021.4,000.0,030.6,024.0,06.0,0000.0,0002.92,0009.37,0000.97
